www.pogodaiklimat.ru

Погода и климат >> Архив погоды >> Канада >> Arviat Climate


ПОГОДА в Arviat Climate

  • Прогноз погоды в Arviat Climate
  • Монитор погоды в Arviat Climate
  • Климат города

АРХИВ ПОГОДЫ в Arviat Climate

Время (UTC), дата Ветер
(напр.,м/с)
 
Видим.   Явления Облачность Т
(С)
Тd
(С)
f
(%)
Тe
(С)
Тes
(С)
Комфортность P
(гПа)
Po
(гПа)
Тmin
(С)
Tmax
(С)
R
(мм)
R24
(мм)
S
(см)
03 17.10 СЗ 6 н/о н/о -11.6 -13.6 85 -20 -20 1016.7 1015.4
06 17.10 СЗ 7 н/о н/о -9.7 -12.0 83 -19 -19 1016.7 1015.4 -13.1 -3.0 13
09 17.10 СЗ 8 н/о н/о -9.3 -11.4 85 -19 -19 1017.0 1015.7
12 17.10 СЗ 8 н/о н/о -12.2 -13.5 90 -22 -22 1017.7 1016.4 -12.3 -3.0
15 17.10 СЗ 6 н/о н/о -10.2 -12.2 85 -19 -19 1017.2 1015.9
18 17.10 З 8 н/о н/о -7.7 -10.0 84 -17 -17 1016.8 1015.5 -12.6 -7.3
21 17.10 З 6 н/о н/о -8.2 -10.7 82 -16 -16 1015.9 1014.6
00 18.10 СЗ 2 н/о н/о -10.1 -11.6 89 -15 -15 1014.8 1013.5 -12.6 -7.3
03 18.10 ЮЗ 3 н/о н/о -10.5 -11.3 94 -16 -16 1013.3 1012.0
06 18.10 ЮЗ 4 н/о н/о -10.8 -11.8 92 -17 -17 1011.3 1010.0 -12.6 -7.3 7
09 18.10 Ю 3 н/о н/о -7.1 -8.7 88 -12 -12 1009.0 1007.7
12 18.10 Ю 7 н/о {осадки} н/о -3.1 -6.0 80 -11 -11 1007.3 1006.0 -11.4 -7.3 0.2
15 18.10 Ю 7 н/о н/о -2.4 -6.0 76 -10 -10 1006.2 1004.9
18 18.10 Ю 7 н/о н/о -1.4 -4.6 79 -9 -9 1004.8 1003.5 -11.4 -1.4
21 18.10 Ю 4 н/о н/о -1.9 -2.8 94 -8 -8 1003.8 1002.5
00 19.10 ЮЗ 4 н/о н/о -2.4 -2.4 100 -9 -9 1002.9 1001.6 -11.1 -1.3 0.2
03 19.10 ЮЗ 4 н/о н/о -3.0 -3.2 99 -9 -9 1001.2 999.9 0.3
06 19.10 ЮЗ 4 н/о н/о -3.3 -3.7 97 -10 -10 1000.1 998.9 -11.1 -1.3 0.3 13
09 19.10 ЮЗ 4 н/о н/о -2.7 -2.7 100 -9 -9 998.6 997.4
12 19.10 СЗ 9 н/о {осадки} н/о -6.9 -7.7 94 -17 -17 999.4 998.1 -6.9 -1.3 0.4
15 19.10 СЗ 7 н/о н/о -6.6 -7.5 93 -15 -15 999.7 998.4 0.3
18 19.10 С 8 н/о н/о -4.0 -5.2 91 -13 -13 1001.7 1000.4 -7.5 -2.3 0.3
21 19.10 С 8 н/о н/о -1.8 -3.0 91 -10 -10 1005.0 1003.7
00 20.10 С 15 н/о н/о -4.2 -4.5 98 -15 -15 1011.1 1009.8 -7.5 -1.1 0.3
03 20.10 С 14 н/о н/о -9.9 -11.0 92 -22 -22 1015.2 1013.9
06 20.10 С 12 н/о н/о -11.5 -12.8 90 -23 -23 1017.9 1016.6 -11.5 -1.1 0
09 20.10 С 10 н/о н/о -13.3 -14.7 89 -25 -25 1020.0 1018.7
12 20.10 СЗ 7 н/о н/о -14.2 -15.6 89 -24 -24 1021.5 1020.2 -14.4 -1.1
15 20.10 СЗ 8 н/о н/о -10.8 -13.0 84 -20 -20 1020.9 1019.6
18 20.10 З 5 н/о н/о -10.7 -12.8 84 -18 -18 1020.1 1018.8 -14.4 -10.2
21 20.10 ЮЗ 1 н/о н/о -10.9 -12.4 89 -13 -13 1018.2 1016.9
00 21.10 ЮЗ 4 н/о н/о -10.0 -11.8 87 -17 -17 1015.6 1014.3 -14.4 -10.0
03 21.10 Ю 8 н/о н/о -6.4 -8.0 88 -16 -16 1012.5 1011.2
06 21.10 Ю 10 н/о н/о -4.3 -6.3 86 -14 -14 1009.8 1008.5 -14.4 -4.3 7
09 21.10 Ю 12 н/о н/о -3.5 -6.7 78 -13 -13 1006.8 1005.5
12 21.10 ЮВ 11 н/о н/о -2.5 -4.6 85 -12 -12 1005.0 1003.7 -10.3 -4.3
15 21.10 ЮВ 9 н/о н/о -1.7 -2.0 98 -10 -10 1004.1 1002.8
18 21.10 ЮВ 10 н/о н/о -0.8 -1.6 94 -9 -9 1003.7 1002.4 -11.4 -0.8
21 21.10 ЮВ 9 н/о н/о -0.4 -1.0 96 -9 -9 1004.8 1003.5
00 22.10 ЮВ 6 н/о н/о -0.6 -1.5 94 -8 -8 1006.8 1005.5 -4.4 -0.3
03 22.10 В 6 н/о н/о -1.2 -1.7 96 -8 -8 1008.7 1007.4
06 22.10 В 3 н/о н/о -0.9 -1.8 94 -6 -6 1010.4 1009.1 -4.4 -0.3 10
09 22.10 СВ 2 н/о н/о -1.4 -1.9 96 -5 -5 1012.6 1011.3
12 22.10 СВ 4 н/о {осадки} н/о -1.6 -1.6 100 -7 -7 1014.7 1013.4 -2.0 -0.3 0.4
15 22.10 С 5 н/о {осадки} н/о -1.7 -1.7 100 -9 -9 1017.2 1015.9 0.7
18 22.10 С 5 н/о {осадки} н/о -4.4 -4.9 96 -12 -12 1019.8 1018.5 -4.7 -0.9 0.9
21 22.10 СЗ 7 н/о н/о -6.7 -7.4 95 -15 -15 1022.0 1020.7
00 23.10 С 7 н/о н/о -4.6 -4.6 100 -13 -13 1024.5 1023.2 -7.3 -1.4
03 23.10 С 5 н/о н/о -10.0 -10.5 96 -18 -18 1025.6 1024.3
06 23.10 С 5 н/о н/о -11.5 -12.2 95 -19 -19 1026.6 1025.3 -11.6 -0.9 22
09 23.10 С 5 н/о н/о -15.5 -16.5 92 -25 -25 1027.5 1026.2
12 23.10 СЗ 4 н/о н/о -18.7 -20.0 89 -27 -27 1028.3 1027.0 -18.7 -0.9 0.2
15 23.10 СЗ 3 н/о н/о -20.1 -21.6 88 -28 -28 1028.3 1027.0
18 23.10 С 2 н/о н/о -17.2 -18.4 90 -23 -23 1028.4 1027.1 -20.3 -11.3
21 23.10 н/о н/о -15.5 -16.6 91 1027.9 1026.6
00 24.10 С 1 н/о н/о -12.7 -13.5 94 -13 -13 1027.5 1026.2 -20.3 -12.7

 

Местоположение метеостанции Arviat Climate (Канада): широта 61.10 долгота -94.06 высота над уровнем моря 10 м.

В архиве по умолчанию представлена погода в Arviat Climate за последнюю неделю. Архивные данные за месяц целиком и за предыдущие месяцы, начиная с января 2011 года, Вы можете получить, выбрав интересующий диапазон дат из раскрывающегося списка и нажав кнопку "Ввод!".


*Определитесь, кто Вы:
робот инопланетянин человек

Внимание! Время в таблицах - всемирное. Для получения местного времени необходимо прибавить поправку, которая в Arviat Climate равна -6 ч.

Смотрите также архив погоды в соседних городах и на ближайших метеорологических станциях:

Погода в Arviat Airport (Канада) (1 км)
Погода в Rankin Inlet (Канада) (217 км)
Погода в Churchill Climate (Канада) (265 км)
Погода в Tadoule Lake (Канада) (362 км)
Погода в Baker Lake Airport (Канада) (370 км)
Погода в Baker Lake Climate (Канада) (372 км)
Погода в Dubawnt Lake (Канада) (462 км)
Погода в Gillam (Канада) (530 км)
Погода в Back River MAPS (Канада) (567 км)
Погода в Wager Bay (Канада) (579 км)

Пояснения к столбцам:

Ветер - указаны скорость ветра в м/с - средняя за 10 мин, порывы в срок и между сроками (в фигурных скобках) и направление, откуда дует ветер: С - северный, СВ - северо-восточный, В - восточный, ЮВ - юго-восточный, Ю - южный, ЮЗ - юго-западный, З - западный, СЗ - северо-западный.
Видимость - горизонтальная дальность видимости в метрах или километрах. При видимости от 1 до 10 км при отсутствии осадков обычно наблюдается дымка, при ухудшении видимости до 1 км и менее - туман. В сухую погоду видимость может ухудшаться дымом, пылью или мглою.
Явления - указаны атмосферные явления, наблюдавшиеся в срок или в последний час перед сроком; фигурными скобками обозначены явления, наблюдавшиеся между сроками (за 1-3 часа до срока); квадратными скобками обозначены град или гололедные отложения с указанием их диаметра в мм.
Облачность - указаны через наклонную черту общая и нижняя облачность в баллах и высота нижней границы облаков в метрах; квадратными скобками обозначены формы облаков: Ci - перистые, Cs - перисто-слоистые, Cc - перисто-кучевые, Ac - высококучевые, As - высокослоистые, Sc - слоисто-кучевые, Ns - слоисто-дождевые, Cu - кучевые, Cb - кучево-дождевые. Подробнее классификацию облаков см. в Атласе облаков (PDF).
T - Температура воздуха - температура, измеренная на высоте 2 м над землей.
Td - Температура точки росы - температура, при понижении до которой содержащийся в воздухе водяной пар достигнет насыщения.
f - Относительная влажность воздуха - влажноcть воздуха, измеренная на высоте 2 м над землей.
Te - Эффективная температура - температура, которую ощущает одетый по сезону человек в тени. Характеристика душности погоды. При расчете учитывается влияние влажности воздуха и скорости ветра на теплоощущения человека.
Tes - Эффективная температура на солнце - температура, которую ощущает человек, с поправкой на солнечный нагрев. Характеристика знойности погоды. Зависит от высоты солнца над горизонтом, облачности и скорости ветра. Ночью, в пасмурную погоду, а также при ветре 12 м/с и более поправка равна нулю.
P - Атмосферное давление - приведенное к уровню моря атмосферное давление.
Po - Атмосферное давление - измеренное на уровне метеостанции атмосферное давление.
Tmin - Минимальная температура - минимум температуры воздуха на высоте 2 м над землей.
Tmax - Максимальная температура - максимум температуры воздуха на высоте 2 м над землей.
R - Количество осадков - Количество выпавших осадков за период времени, мм. При наведении курсора мыши на число - период времени, за который выпало указанное количество осадков.
R24 - Количество осадков - Количество выпавших осадков за 24 часа, мм.
S - Снежный покров - Высота снежного покрова, см. При наведении курсора мыши на число - состояние снежного покрова и степень покрытия местности в баллах.